Rickenbacker, OH

5:43 AM EDT on March 27, 2017 (GMT -0400)
Rickenbacker International

Weather History for KLCK - December, 2012

Change the Weather History Date:

Wednesday, December 5, 2012

  Actual Average Record
Temperature  
Mean Temperature 38 °F -  
Max Temperature 44 °F 44 °F 71 °F (2001)
Min Temperature 31 °F 30 °F 17 °F (2008)
Degree Days  
Heating Degree Days 28    
Moisture  
Dew Point 30 °F    
Average Humidity 73    
Maximum Humidity 91    
Minimum Humidity 53    
Precipitation  
Precipitation 0.00 in - - ()
Sea Level Pressure  
Sea Level Pressure 30.29 in    
Wind  
Wind Speed 6 mph (NNW)    
Max Wind Speed 13 mph    
Max Gust Speed -    
Visibility 9 miles    
Events      
Averages and records for this station are not official NWS values.
T = Trace of Precipitation, MM = Missing Value Source: NWS Daily Summary

Daily Weather History Graph

Daily Weather History Graph

Search for Another Location

Airport or City:

Trip Planner

Search our weather history database for the weather conditions in past years. The results will help you decide how hot, cold, wet, or windy it might be!

Date:

Astronomy

Dec. 05, 2012 Rise Set
Actual Time 7:38 AM EST 5:06 PM EST
Civil Twilight 7:08 AM EST 5:37 PM EST
Nautical Twilight 6:34 AM EST 6:10 PM EST
Astronomical Twilight 6:01 AM EST 6:43 PM EST
Moon 11:54 PM EST (12/5) 12:01 PM EST (12/5)
Length of Visible Light 10h 29m
Length of Day
9h 28m
Waning Gibbous, 60% of the Moon is Illuminated
Dec 5
Waning Gibbous
Dec 6
Last Quarter
Dec 13
New
Dec 20
First Quarter
Dec 28
Full

Hourly Weather History & Observations

Time (EST) Temp. Windchill Dew Point Humidity Pressure Visibility Wind Dir Wind Speed Gust Speed Precip Events Conditions
12:15 AM 37.9 °F 33.5 °F 34.9 °F 89% 30.19 in 10.0 mi South 5.8 mph - N/A   Clear
12:35 AM 37.8 °F 32.5 °F 34.7 °F 89% 30.19 in 10.0 mi South 6.9 mph - N/A   Clear
12:55 AM 37.6 °F 33.1 °F 34.5 °F 89% 30.20 in 10.0 mi South 5.8 mph - N/A   Clear
1:15 AM 37.9 °F 33.5 °F 35.1 °F 89% 30.19 in 10.0 mi South 5.8 mph - N/A   Clear
1:35 AM 37.9 °F 34.4 °F 34.9 °F 89% 30.19 in 10.0 mi South 4.6 mph - N/A   Clear
1:55 AM 36.9 °F 32.2 °F 34.0 °F 89% 30.20 in 7.0 mi South 5.8 mph - N/A   Clear
2:15 AM 36.9 °F 32.2 °F 34.2 °F 90% 30.21 in 7.0 mi South 5.8 mph - N/A   Clear
2:55 AM 37.2 °F 33.6 °F 34.2 °F 89% 30.23 in 10.0 mi SW 4.6 mph - N/A   Clear
3:15 AM 36.7 °F 32.0 °F 33.6 °F 89% 30.23 in 7.0 mi SSW 5.8 mph - N/A   Clear
3:35 AM 36.5 °F 32.7 °F 33.6 °F 89% 30.23 in 7.0 mi SW 4.6 mph - N/A   Clear
3:55 AM 35.8 °F 31.9 °F 32.9 °F 89% 30.23 in 4.0 mi SW 4.6 mph - N/A   Clear
4:15 AM 35.2 °F 30.3 °F 32.5 °F 90% 30.23 in 3.0 mi South 5.8 mph - N/A   Clear
4:35 AM 35.2 °F 31.2 °F 32.5 °F 90% 30.24 in 3.0 mi SSW 4.6 mph - N/A   Clear
4:55 AM 35.6 °F - 32.9 °F 90% 30.24 in 4.0 mi Calm Calm - N/A   Clear
5:15 AM 35.6 °F 32.8 °F 32.9 °F 90% 30.25 in 2.5 mi SSW 3.5 mph - N/A   Clear
5:35 AM 35.1 °F 32.2 °F 32.5 °F 91% 30.25 in 1.5 mi WSW 3.5 mph - N/A   Mist
5:55 AM 35.6 °F 31.7 °F 33.1 °F 91% 30.25 in 4.0 mi WNW 4.6 mph - N/A   Clear
6:15 AM 35.6 °F 31.7 °F 32.7 °F 89% 30.26 in 7.0 mi WNW 4.6 mph - N/A   Clear
6:35 AM 35.4 °F 30.5 °F 32.0 °F 87% 30.26 in 7.0 mi WNW 5.8 mph - N/A   Clear
6:55 AM 35.1 °F 31.0 °F 32.0 °F 89% 30.27 in 7.0 mi NW 4.6 mph - N/A   Clear
7:15 AM 34.9 °F 30.8 °F 31.8 °F 89% 30.28 in 10.0 mi WNW 4.6 mph - N/A   Clear
7:35 AM 34.7 °F 29.6 °F 31.5 °F 88% 30.28 in 7.0 mi NW 5.8 mph - N/A   Clear
7:55 AM 34.7 °F 28.8 °F 31.5 °F 88% 30.29 in 10.0 mi NW 6.9 mph - N/A   Clear
9:35 AM 38.5 °F 32.1 °F 33.1 °F 81% 30.33 in 10.0 mi NW 9.2 mph - N/A   Clear
9:55 AM 40.6 °F 33.4 °F 33.4 °F 75% 30.33 in 10.0 mi NNW 12.7 mph - N/A   Clear
10:15 AM 41.2 °F 35.0 °F 32.7 °F 72% 30.34 in 10.0 mi NNW 10.4 mph - N/A   Clear
10:35 AM 41.9 °F 35.9 °F 32.5 °F 69% 30.34 in 10.0 mi NNW 10.4 mph - N/A   Clear
10:55 AM 42.6 °F 36.8 °F 32.4 °F 67% 30.34 in 10.0 mi NW 10.4 mph - N/A   Clear
11:15 AM 43.0 °F 37.2 °F 31.3 °F 63% 30.34 in 10.0 mi NNW 10.4 mph - N/A   Scattered Clouds
11:35 AM 43.7 °F 38.1 °F 29.8 °F 58% 30.34 in 10.0 mi North 10.4 mph - N/A   Clear
11:55 AM 43.9 °F 37.9 °F 29.7 °F 57% 30.34 in 10.0 mi North 11.5 mph - N/A   Scattered Clouds
12:15 PM 43.9 °F 39.3 °F 29.8 °F 58% 30.34 in 10.0 mi NNW 8.1 mph - N/A   Scattered Clouds
12:35 PM 44.1 °F 39.0 °F 28.8 °F 55% 30.33 in 10.0 mi NNW 9.2 mph - N/A   Scattered Clouds
12:55 PM 44.1 °F 40.8 °F 28.9 °F 55% 30.33 in 10.0 mi NW 5.8 mph - N/A   Scattered Clouds
1:15 PM 44.1 °F 41.5 °F 28.6 °F 55% 30.32 in 10.0 mi North 4.6 mph - N/A   Scattered Clouds
1:35 PM 43.7 °F 39.7 °F 28.6 °F 55% 30.32 in 10.0 mi North 6.9 mph - N/A   Scattered Clouds
1:55 PM 43.7 °F 40.3 °F 27.9 °F 54% 30.32 in 10.0 mi North 5.8 mph - N/A   Scattered Clouds
2:15 PM 44.1 °F 39.5 °F 28.0 °F 53% 30.32 in 10.0 mi NW 8.1 mph - N/A   Scattered Clouds
2:35 PM 43.5 °F 39.4 °F 27.1 °F 53% 30.31 in 10.0 mi WNW 6.9 mph - N/A   Scattered Clouds
3:15 PM 42.6 °F 37.2 °F 27.1 °F 54% 30.33 in 10.0 mi NNW 9.2 mph - N/A   Scattered Clouds
3:35 PM 41.9 °F 36.9 °F 26.2 °F 54% 30.33 in 10.0 mi North 8.1 mph - N/A   Scattered Clouds
3:55 PM 41.5 °F 36.4 °F 25.5 °F 53% 30.33 in 10.0 mi North 8.1 mph - N/A   Clear
4:15 PM 40.6 °F 36.0 °F 25.5 °F 55% 30.33 in 10.0 mi North 6.9 mph - N/A   Clear
4:35 PM 40.3 °F 34.4 °F 25.7 °F 56% 30.33 in 10.0 mi North 9.2 mph - N/A   Clear
4:55 PM 39.6 °F 34.0 °F 25.7 °F 58% 30.33 in 10.0 mi North 8.1 mph - N/A   Clear
5:15 PM 38.5 °F 32.7 °F 25.7 °F 60% 30.34 in 10.0 mi North 8.1 mph - N/A   Clear
5:35 PM 37.8 °F 31.8 °F 25.5 °F 61% 30.34 in 10.0 mi North 8.1 mph - N/A   Clear
5:55 PM 37.0 °F 31.6 °F 25.7 °F 64% 30.34 in 10.0 mi North 6.9 mph - N/A   Clear
6:15 PM 36.5 °F 30.3 °F 25.7 °F 65% 30.34 in 10.0 mi North 8.1 mph - N/A   Clear
6:35 PM 36.3 °F 30.8 °F 25.5 °F 65% 30.34 in 10.0 mi North 6.9 mph - N/A   Clear
6:55 PM 35.6 °F 30.7 °F 25.5 °F 67% 30.35 in 10.0 mi North 5.8 mph - N/A   Clear
7:15 PM 34.9 °F 30.8 °F 25.3 °F 68% 30.34 in 10.0 mi NNE 4.6 mph - N/A   Clear
7:35 PM 34.0 °F 28.0 °F 25.2 °F 70% 30.34 in 10.0 mi NNE 6.9 mph - N/A   Clear
7:55 PM 33.4 °F 26.6 °F 24.8 °F 71% 30.34 in 10.0 mi NE 8.1 mph - N/A   Clear
8:15 PM 31.8 °F 26.2 °F 24.1 °F 73% 30.35 in 10.0 mi NE 5.8 mph - N/A   Clear
8:35 PM 31.3 °F 26.6 °F 23.7 °F 74% 30.34 in 10.0 mi ENE 4.6 mph - N/A   Clear
8:55 PM 31.1 °F 25.4 °F 23.4 °F 73% 30.34 in 10.0 mi NE 5.8 mph - N/A   Clear